Tracking 19709 objects as of 18-Jun-2019
HD Live streaming from Space Station
objects crossing your sky now

SL-8 DEB

Track SL-8 DEB now!
10-day predictions


NORAD ID: 39699
Int'l Code: 1991-009DN
Perigee: 1,497.8 km
Apogee: 1,729.2 km
Inclination: 74.1 °
Period: 118.3 minutes
Semi major axis: 7984 km
RCS: 0.0155 m2 (small)
Launch date: February 12, 1991
Source: Commonwealth of Independent States (former USSR) (CIS)
Launch site: PLESETSK MISSILE AND SPACE COMPLEX (PKMTR)

Note: This is SATELLITE DEBRIS
aabbcc
Your satellite tracking list
Your tracking list is empty




NASA's NSSDC Master Catalog

Two Line Element Set (TLE):
1 39699U 91009DN  19167.38204363 -.00000116 +00000-0 -99338-3 0  9993
2 39699 074.0945 298.7975 0144913 018.6326 341.9935 12.16840460229360
Source of the keplerian elements: AFSPC